Weather Roundup
Issued by NWS

Home | Current Version | Previous Version | Graphics & Text | Print | Product List | Glossary Off
Versions: 1 2 3 4 5 6 7 8 9 10 11 12 13 14 15 16 17 18 19 20 21 22 23 24 25 26 27 28 29 30 31 32 33 34 35 36 37 38 39 40 41 42 43 44 45 46 47 48 49 50

000
NZUS93 KARX 231210
HRRWXR

CURRENT HOURLY OBSERVATIONS ACROSS
MUCH OF THE UPPER MISSISSIPPI VALLEY
NATIONAL WEATHER SERVICE LA CROSSE WI
700 AM CDT MON OCT 23 2017


...SOUTHEAST MINNESOTA...


CITY           SKY/WX    TMP DP  RH WIND       PRES   REMARKS
ROCHESTER      CLEAR     44  38  79 S10       29.80F
ROCHESTER/MAYO FAIR      48  37  64 S13       29.79F
WINONA         CLOUDY    48  41  76 SE8       29.82F
AUSTIN         CLEAR     43  37  81 S6        29.81F
ALBERT LEA     NOT AVBL
DODGE CENTER   CLEAR     45  37  76 S9        29.79F
PRESTON        CLEAR     43  38  83 S10       29.83F
OWATONNA       CLEAR     45  37  76 S9        29.80S
FARIBAULT      CLEAR     46  37  71 S7        29.79S
$$

...ELSEWHERE IN MINNESOTA...


CITY           SKY/WX    TMP DP  RH WIND       PRES   REMARKS
MINNEAPOLIS    MOCLDY    52  36  54 SW8       29.78R
INTNL FALLS    LGT RAIN  48  43  82 S3        29.60S
DULUTH         CLOUDY    51  35  54 SW13      29.68F
RED WING       CLEAR     52  36  54 S3        29.78S
REDWOOD FALLS  PTCLDY    52  40  63 W16       29.81R
MANKATO        PTCLDY    47  35  63 SW8       29.81R
WORTHINGTON    PTCLDY    52  39  61 NW16      29.87R
FAIRMONT       CLOUDY    44  37  76 W6        29.83R
$$

...SOUTHWEST WISCONSIN...


CITY           SKY/WX    TMP DP  RH WIND       PRES   REMARKS
LA CROSSE      PTCLDY    48  44  86 S7        29.85F
PRAIRIE DU CHI CLOUDY    39  38  96 CALM      29.88F
BOSCOBEL       FOG       41  40  96 CALM      29.91F VSB 1/4
LONE ROCK      FOG       39  39 100 SE3       29.93R VSB 1/4
PLATTEVILLE    CLOUDY    41  41 100 S5        29.92R
FORT MC COY    CLOUDY    38  38 100 SE5       29.88F WCI  35
CAMP DOUGLAS   MOCLDY    43  41  93 S5        29.87
MAUSTON-NEW LI MOSUNNY   46  40  79 CALM      29.87F HAZE
VIROQUA        CLOUDY    42  42  99 SE5       29.88F
WIS DELLS      CLOUDY    40  40  99 CALM      29.90R
$$

...ELSEWHERE IN WISCONSIN...


CITY           SKY/WX    TMP DP  RH WIND       PRES   REMARKS
MILWAUKEE      CLOUDY    51  48  89 N7        29.92F
MADISON        CLOUDY    42  41  96 CALM      29.91F
GREEN BAY      FOG       43  43 100 CALM      29.92F VSB 1/4
EAU CLAIRE     PTCLDY    46  40  79 S3        29.79F
BLACK RVR FLS  FAIR      33  33 100 CALM      29.84F FOG
MEDFORD        CLOUDY    41  39  92 S7        29.85F
WAUSAU         CLOUDY    39  39 100 E5        29.88F
WIS RAPIDS     CLOUDY    39  39 100 CALM      29.89F
MARSHFIELD     CLOUDY    40  38  93 S3        29.86F
RICE LAKE      CLOUDY    45  39  80 SE7       29.79F
$$

...NORTHEAST IOWA...


CITY           SKY/WX    TMP DP  RH WIND       PRES   REMARKS
WATERLOO       CLEAR     42  39  89 S7        29.86F
DUBUQUE        CLOUDY    43  40  89 S5        29.91R
DECORAH        CLEAR     43  41  93 SE3       29.85F
MASON CITY     MOCLDY    45  38  76 S12       29.83F
CHARLES CITY   CLEAR     45  41  87 S9        29.84F
OELWEIN        PTCLDY    41  41 100 S8        29.88F
$$

...ELSEWHERE IN IOWA...


CITY           SKY/WX    TMP DP  RH WIND       PRES   REMARKS
DES MOINES     PTCLDY    45  39  79 S7        29.84F
IOWA CITY      CLOUDY    44  42  93 SE7       29.94R
FORT DODGE     MOCLDY    44  37  76 SW8       29.85R
MARSHALLTOWN   CLEAR     43  39  86 S6        29.85F
CEDAR RAPIDS   CLOUDY    41  40  96 SE5       29.90S
$$

...NORTHERN ILLINOIS...


CITY           SKY/WX    TMP DP  RH WIND       PRES   REMARKS
CHICAGO-OHARE  RAIN      51  49  92 N12       29.87F
CHICAGO-MIDWAY LGT RAIN  52  51  97 N12G20    29.86F
MOLINE         FOG       46  45  96 CALM      29.90F VSB 1/4
ROCKFORD       CLOUDY    49  46  90 N6        29.92F
PEORIA         CLOUDY    51  47  86 N6        29.88F
$$

NOTE: "FAIR" INDICATES FEW OR NO CLOUDS BELOW 12,000 FEET WITH NO
SIGNIFICANT WEATHER AND/OR OBSTRUCTIONS TO VISIBILITY. WIND
SPEEDS ARE IN MILES-PER-HOUR.




USA.gov is the U.S. government's official web portal to all federal, state and local government web resources and services.